[[{"header":{"parameterUnit":"m.s-1","parameterCategory":1,"la1":30.2992,"la2":30.254,"lo1":-89.0895,"lo2":-89.0443,"dy":0.0025,"dx":0.0025,"nx":19,"ny":19,"refTime":"2026-03-20T09:00:00:Z","depth":0,"parameterNumber":2,"parameterNumberName":"U-component_of_WINDS"},"data":[0,0,0,-0.0365,-0.0361,-0.0145,-0.0144,0.0112,0.0114,0,0,0,0,0,0,0,0,0,0,0,-0.0445,-0.0444,-0.0365,-0.036,-0.0145,-0.0144,0.0111,0.0114,0,0,0,0,0,0,0,0,0,0,0,-0.0445,-0.0444,-0.0442,-0.0359,-0.0145,-0.0144,0.0111,-0.0044,0,0,0,0,0,0,0,0,0,0,-0.0249,-0.034,-0.0444,-0.0442,-0.0358,-0.0145,-0.0143,-0.0051,-0.0034,0.0004,0,0.003,0,0.0076,0.0129,0.013,0,0,0,-0.0347,-0.0354,-0.0282,-0.0442,-0.0356,-0.0146,-0.0238,-0.0041,-0.0022,0.0026,0.0034,0.0045,0.008,0.0131,0.0132,0.0302,0.0302,0,0,-0.0359,-0.0414,-0.0295,-0.027,-0.0309,-0.0245,-0.0232,-0.0029,-0.0023,0.0035,0.0051,0.0084,0.0132,0.0134,0.0302,0.0302,0,0,0,-0.0402,-0.0423,-0.0355,-0.0281,-0.0241,-0.0239,-0.0224,-0.0032,-0.0005,0.0054,0.0087,0.0134,0.0136,0.0302,0.0302,0.0257,0,0,0,-0.0408,-0.0448,-0.0361,-0.0392,-0.0246,-0.0135,-0.0231,-0.0019,0.0006,0.0086,0.0134,0.0139,0.0301,0.0302,0.0258,0.0246,0,0,0,-0.0453,-0.0453,-0.0427,-0.0395,-0.0305,-0.0137,-0.0098,-0.0012,0.0025,0.013,0.0139,0.0301,0.0302,0.0259,0.0248,0.0276,0,0,0,-0.0516,-0.047,-0.0429,-0.0364,-0.0307,-0.0167,-0.0099,0.0009,0.0094,0.0135,0.0301,0.0302,0.0259,0.0249,0.0277,0.0291,0.0291,0,0,-0.0488,-0.0469,-0.0426,-0.0383,-0.0265,-0.0196,-0.0081,0.0049,0.0111,0.0236,0.0241,0.0258,0.0248,0.0276,0.0309,0.0309,0,0,0,-0.0435,-0.0405,-0.0362,-0.0285,-0.0186,-0.01,0.0018,0.0068,0.0176,0.0162,0.0277,0.0273,0.0292,0.0302,0.0301,0.0323,0.0303,0.0303,0.0303,-0.0474,-0.0399,-0.0322,-0.0221,-0.0147,-0.0025,0.0044,0.0131,0.0186,0.0212,0.025,0.026,0.0269,0.0269,0.029,0.0262,0.0262,0.0262,0.0262,-0.0425,-0.037,-0.0298,-0.0198,-0.0118,-0.0031,0.009,0.0126,0.0221,0.0237,0.0258,0.0271,0.0266,0.0289,0.0259,0.026,0.026,0.026,0.0261,-0.0441,-0.0402,-0.0344,-0.0224,-0.0139,-0.0036,0.0051,0.0122,0.0189,0.021,0.0259,0.026,0.0272,0.0228,0.0228,0.0228,0.0228,0.0228,0.0228,-0.0481,-0.0414,-0.0351,-0.0241,-0.0181,-0.0092,0.0033,0.0095,0.0183,0.0228,0.0229,0.0283,0.0251,0.0242,0.0229,0.0229,0.0229,0.0229,0.0229,-0.0457,-0.0451,-0.0353,-0.0293,-0.0156,-0.0074,0.0015,0.0136,0.0198,0.024,0.0291,0.0254,0.0281,0.0282,0.0275,0.0272,0.0272,0.0272,0.0272,-0.047,-0.045,-0.0333,-0.0241,-0.0143,-0.0052,0.0061,0.016,0.0264,0.0309,0.0319,0.0317,0.0314,0.0342,0.0342,0.0337,0.0349,0.0349,0.0349,-0.045,-0.0417,-0.0337,-0.0238,-0.0124,-0.0026,0.0083,0.0189,0.0309,0.0354,0.0346,0.0342,0.0339,0.0333,0.0378,0.0376,0.0369,0,0]},{"header":{"parameterUnit":"m.s-1","parameterCategory":1,"la1":30.2992,"la2":30.254,"lo1":-89.0895,"lo2":-89.0443,"dy":0.0025,"dx":0.0025,"nx":19,"ny":19,"refTime":"2026-03-20T09:00:00:Z","depth":0,"parameterNumber":3,"parameterNumberName":"V-component_of_WINDS"},"data":[0,0,0,3.813,3.8134,3.8371,3.8372,3.8658,3.866,0,0,0,0,0,0,0,0,0,0,0,3.8054,3.8056,3.8129,3.8135,3.837,3.8372,3.8657,3.866,0,0,0,0,0,0,0,0,0,0,0,3.8053,3.8055,3.8057,3.8136,3.837,3.8372,3.8657,3.8483,0,0,0,0,0,0,0,0,0,0,3.8256,3.8182,3.8055,3.8057,3.8137,3.837,3.8372,3.8475,3.8494,3.8545,0,3.8593,0,3.8631,3.8679,3.868,0,0,0,3.8138,3.8166,3.8235,3.8058,3.8139,3.837,3.8265,3.8486,3.8507,3.857,3.8597,3.8608,3.8636,3.868,3.8682,3.898,3.8981,0,0,3.8125,3.8092,3.8221,3.8249,3.8216,3.8257,3.8272,3.8499,3.8524,3.8598,3.8615,3.8641,3.8682,3.8684,3.8978,3.898,0,0,0,3.8085,3.8082,3.8147,3.8237,3.8281,3.8264,3.8281,3.8514,3.8538,3.8618,3.8644,3.8684,3.8687,3.8977,3.8979,3.9014,0,0,0,3.8078,3.806,3.8141,3.8123,3.8277,3.8401,3.8291,3.8522,3.8549,3.8643,3.8684,3.869,3.8976,3.8978,3.901,3.9035,0,0,0,3.804,3.8055,3.8088,3.8121,3.8222,3.8398,3.8435,3.8529,3.8565,3.868,3.8691,3.8975,3.8978,3.9006,3.903,3.9108,0,0,0,3.7989,3.811,3.8088,3.8233,3.822,3.8418,3.8434,3.8582,3.8685,3.8685,3.8976,3.8979,3.9005,3.9026,3.9104,3.9171,3.9194,0,0,3.8123,3.8125,3.8213,3.82,3.8396,3.8385,3.8584,3.8706,3.8743,3.8898,3.8905,3.9011,3.9029,3.9107,3.9334,3.9353,0,0,0,3.8244,3.8308,3.8366,3.8466,3.8565,3.8653,3.8749,3.8795,3.8929,3.8818,3.9059,3.9071,3.9118,3.9151,3.9168,3.9212,3.8992,3.8992,3.8991,3.8386,3.8434,3.8584,3.8661,3.8756,3.8857,3.8938,3.9016,3.903,3.9087,3.9134,3.9266,3.9304,3.9317,3.9362,3.917,3.917,3.917,3.917,3.8589,3.8689,3.8711,3.8866,3.8914,3.9042,3.9143,3.915,3.9276,3.9233,3.9277,3.923,3.9336,3.9378,3.9173,3.9173,3.9172,3.9172,3.9172,3.8691,3.8747,3.8804,3.8956,3.9066,3.9137,3.926,3.9297,3.9331,3.9375,3.9431,3.9431,3.9438,3.9398,3.9399,3.9399,3.94,3.94,3.94,3.8774,3.8838,3.8939,3.9059,3.913,3.9227,3.9331,3.94,3.9487,3.9504,3.9505,3.9516,3.9337,3.9293,3.9408,3.9407,3.9406,3.9405,3.9404,3.8969,3.8932,3.9088,3.916,3.9306,3.9415,3.9462,3.9601,3.9663,3.9723,3.9725,3.9586,3.9589,3.9576,3.9541,3.9713,3.9713,3.9713,3.9713,3.9057,3.9063,3.9235,3.9348,3.9462,3.9522,3.9696,3.9778,3.9855,3.9897,3.9877,3.9832,3.9817,3.9829,3.9811,3.9779,4.0007,4.0008,4.0008,3.9182,3.9202,3.9345,3.9426,3.9543,3.9642,3.9808,3.9935,4.0014,4.0021,3.9932,3.9919,3.9847,3.982,3.9826,3.9798,3.9739,0,0]}]]